Time,TemperatureF,DewpointF,PressureIn,WindDirection,WindDirectionDegrees,WindSpeedMPH,WindSpeedGustMPH,Humidity,HourlyPrecipIn,Conditions,Clouds,dailyrainin,SoftwareType,DateUTC
2013-10-16 00:13:00,51.7,48.0,30.04,SE,144,0.0,2.0,87,0.00,,,0.00,weatherlink.com 1.10,2013-10-16 04:13:00,
2013-10-16 00:28:00,51.3,48.0,30.04,SE,144,1.0,2.0,88,0.00,,,0.00,weatherlink.com 1.10,2013-10-16 04:28:00,
2013-10-16 00:44:00,51.1,48.0,30.05,SE,144,0.0,1.0,89,0.00,,,0.00,weatherlink.com 1.10,2013-10-16 04:44:00,
2013-10-16 00:58:00,50.9,48.0,30.05,SE,144,0.0,2.0,90,0.00,,,0.00,weatherlink.com 1.10,2013-10-16 04:58:00,
2013-10-16 01:14:00,50.7,48.0,30.04,SE,144,0.0,1.0,89,0.00,,,0.00,weatherlink.com 1.10,2013-10-16 05:14:00,
2013-10-16 01:28:00,50.6,47.0,30.04,SE,144,0.0,1.0,87,0.00,,,0.00,weatherlink.com 1.10,2013-10-16 05:28:00,
2013-10-16 01:43:00,50.6,48.0,30.04,SE,144,0.0,1.0,89,0.00,,,0.00,weatherlink.com 1.10,2013-10-16 05:43:00,
2013-10-16 01:59:00,50.3,47.0,30.04,SE,144,0.0,0.0,88,0.00,,,0.00,weatherlink.com 1.10,2013-10-16 05:59:00,
2013-10-16 02:14:00,49.8,46.0,30.04,SE,144,0.0,0.0,88,0.00,,,0.00,weatherlink.com 1.10,2013-10-16 06:14:00,
2013-10-16 02:29:00,49.1,46.0,30.03,SE,144,0.0,1.0,89,0.00,,,0.00,weatherlink.com 1.10,2013-10-16 06:29:00,
2013-10-16 02:44:00,48.9,45.0,30.02,SE,144,0.0,2.0,87,0.00,,,0.00,weatherlink.com 1.10,2013-10-16 06:44:00,
2013-10-16 02:59:00,49.2,45.0,30.02,SE,144,0.0,1.0,86,0.00,,,0.00,weatherlink.com 1.10,2013-10-16 06:59:00,
2013-10-16 03:14:00,49.3,45.0,30.02,SE,144,0.0,1.0,85,0.00,,,0.00,weatherlink.com 1.10,2013-10-16 07:14:00,
2013-10-16 03:29:00,49.2,44.0,30.02,SE,144,0.0,1.0,83,0.00,,,0.00,weatherlink.com 1.10,2013-10-16 07:29:00,
2013-10-16 03:44:00,50.0,43.0,30.01,South,175,0.0,3.0,76,0.00,,,0.00,weatherlink.com 1.10,2013-10-16 07:44:00,
2013-10-16 04:00:00,50.2,43.0,30.01,SSW,201,0.0,1.0,77,0.00,,,0.00,weatherlink.com 1.10,2013-10-16 08:00:00,
2013-10-16 04:15:00,50.0,42.0,30.02,SSW,205,0.0,2.0,75,0.00,,,0.00,weatherlink.com 1.10,2013-10-16 08:15:00,
2013-10-16 04:30:00,50.1,40.0,30.02,SSW,206,0.0,3.0,69,0.00,,,0.00,weatherlink.com 1.10,2013-10-16 08:30:00,
2013-10-16 04:45:00,49.6,41.0,30.02,East,86,3.0,4.0,73,0.00,,,0.00,weatherlink.com 1.10,2013-10-16 08:45:00,
2013-10-16 05:06:00,49.2,41.0,30.02,East,101,0.0,3.0,73,0.00,,,0.00,weatherlink.com 1.10,2013-10-16 09:06:00,
2013-10-16 05:15:00,49.1,40.0,30.01,West,276,0.0,4.0,71,0.00,,,0.00,weatherlink.com 1.10,2013-10-16 09:15:00,
2013-10-16 05:31:00,50.1,41.0,30.02,West,279,1.0,4.0,71,0.00,,,0.00,weatherlink.com 1.10,2013-10-16 09:31:00,
2013-10-16 05:46:00,50.8,42.0,30.01,South,180,5.0,7.0,73,0.00,,,0.00,weatherlink.com 1.10,2013-10-16 09:46:00,
2013-10-16 06:01:00,50.9,44.0,30.01,SE,134,2.0,10.0,76,0.00,,,0.00,weatherlink.com 1.10,2013-10-16 10:01:00,
2013-10-16 06:16:00,51.0,44.0,30.01,East,101,0.0,11.0,76,0.00,,,0.00,weatherlink.com 1.10,2013-10-16 10:16:00,
2013-10-16 06:31:00,50.7,44.0,30.01,SE,139,4.0,7.0,78,0.00,,,0.00,weatherlink.com 1.10,2013-10-16 10:31:00,
2013-10-16 06:47:00,50.3,45.0,30.00,SE,136,2.0,6.0,81,0.00,,,0.00,weatherlink.com 1.10,2013-10-16 10:47:00,
2013-10-16 07:01:00,50.5,45.0,30.00,ESE,117,1.0,7.0,82,0.00,,,0.00,weatherlink.com 1.10,2013-10-16 11:01:00,
2013-10-16 07:17:00,50.7,45.0,30.00,SE,138,0.0,3.0,82,0.00,,,0.00,weatherlink.com 1.10,2013-10-16 11:17:00,
2013-10-16 07:32:00,50.7,46.0,30.00,SW,215,4.0,8.0,85,0.00,,,0.00,weatherlink.com 1.10,2013-10-16 11:32:00,
2013-10-16 07:47:00,50.9,47.0,29.99,SSE,157,3.0,6.0,86,0.00,,,0.00,weatherlink.com 1.10,2013-10-16 11:47:00,
2013-10-16 08:02:00,51.0,47.0,29.99,SSE,150,1.0,7.0,86,0.00,,,0.00,weatherlink.com 1.10,2013-10-16 12:02:00,
2013-10-16 08:17:00,51.2,47.0,30.00,SW,236,3.0,4.0,86,0.00,,,0.00,weatherlink.com 1.10,2013-10-16 12:17:00,
2013-10-16 08:32:00,51.5,48.0,30.00,ESE,103,4.0,4.0,86,0.00,,,0.00,weatherlink.com 1.10,2013-10-16 12:32:00,
2013-10-16 08:48:00,51.8,48.0,30.01,WNW,292,4.0,4.0,85,0.00,,,0.00,weatherlink.com 1.10,2013-10-16 12:48:00,
2013-10-16 09:02:00,52.1,48.0,30.00,SSW,194,3.0,6.0,85,0.00,,,0.00,weatherlink.com 1.10,2013-10-16 13:02:00,
2013-10-16 09:18:00,52.5,48.0,30.00,SSE,153,2.0,6.0,85,0.00,,,0.00,weatherlink.com 1.10,2013-10-16 13:18:00,
2013-10-16 09:33:00,53.3,48.0,30.00,East,90,1.0,4.0,83,0.00,,,0.00,weatherlink.com 1.10,2013-10-16 13:33:00,
2013-10-16 09:48:00,53.6,48.0,30.00,ESE,109,3.0,8.0,81,0.00,,,0.00,weatherlink.com 1.10,2013-10-16 13:48:00,
2013-10-16 10:03:00,53.7,48.0,29.99,East,100,0.0,6.0,82,0.00,,,0.00,weatherlink.com 1.10,2013-10-16 14:03:00,
2013-10-16 10:18:00,53.9,49.0,29.99,SW,225,0.0,7.0,82,0.00,,,0.00,weatherlink.com 1.10,2013-10-16 14:18:00,
2013-10-16 10:34:00,54.6,49.0,29.98,ESE,103,0.0,5.0,81,0.00,,,0.00,weatherlink.com 1.10,2013-10-16 14:34:00,
2013-10-16 10:48:00,56.1,50.0,29.98,SSE,155,2.0,6.0,79,0.00,,,0.00,weatherlink.com 1.10,2013-10-16 14:48:00,
2013-10-16 11:03:00,56.9,50.0,29.97,SE,132,3.0,5.0,77,0.00,,,0.00,weatherlink.com 1.10,2013-10-16 15:03:00,
2013-10-16 11:20:00,57.3,50.0,29.96,ENE,70,3.0,7.0,77,0.00,,,0.00,weatherlink.com 1.10,2013-10-16 15:20:00,
2013-10-16 11:34:00,57.6,51.0,29.96,SSE,153,1.0,6.0,78,0.00,,,0.00,weatherlink.com 1.10,2013-10-16 15:34:00,
2013-10-16 11:49:00,58.5,52.0,29.96,ESE,114,5.0,7.0,78,0.00,,,0.00,weatherlink.com 1.10,2013-10-16 15:49:00,
2013-10-16 12:04:00,59.0,52.0,29.96,SE,132,1.0,7.0,77,0.00,,,0.00,weatherlink.com 1.10,2013-10-16 16:04:00,
2013-10-16 12:19:00,59.1,52.0,29.95,NNE,32,1.0,9.0,78,0.00,,,0.00,weatherlink.com 1.10,2013-10-16 16:19:00,
2013-10-16 12:34:00,59.3,53.0,29.94,ESE,103,2.0,8.0,80,0.00,,,0.00,weatherlink.com 1.10,2013-10-16 16:34:00,
2013-10-16 12:50:00,58.9,52.0,29.94,ESE,105,4.0,8.0,79,0.00,,,0.00,weatherlink.com 1.10,2013-10-16 16:50:00,
2013-10-16 13:06:00,58.7,53.0,29.93,East,101,0.0,7.0,80,0.00,,,0.00,weatherlink.com 1.10,2013-10-16 17:06:00,
2013-10-16 13:20:00,59.2,53.0,29.93,West,273,0.0,6.0,80,0.00,,,0.00,weatherlink.com 1.10,2013-10-16 17:20:00,
2013-10-16 13:35:00,58.9,53.0,29.92,WSW,254,1.0,6.0,80,0.00,,,0.00,weatherlink.com 1.10,2013-10-16 17:35:00,
2013-10-16 13:50:00,59.3,53.0,29.92,SE,130,3.0,5.0,79,0.00,,,0.00,weatherlink.com 1.10,2013-10-16 17:50:00,
2013-10-16 14:05:00,59.2,53.0,29.91,ESE,104,2.0,7.0,79,0.00,,,0.00,weatherlink.com 1.10,2013-10-16 18:05:00,
2013-10-16 14:21:00,59.0,53.0,29.90,SSE,152,1.0,5.0,80,0.00,,,0.00,weatherlink.com 1.10,2013-10-16 18:21:00,
2013-10-16 14:35:00,58.7,53.0,29.91,East,94,0.0,7.0,81,0.00,,,0.00,weatherlink.com 1.10,2013-10-16 18:35:00,
2013-10-16 14:50:00,58.2,52.0,29.91,East,101,3.0,5.0,81,0.00,,,0.00,weatherlink.com 1.10,2013-10-16 18:50:00,
2013-10-16 15:05:00,58.2,52.0,29.91,SE,126,1.0,3.0,81,0.00,,,0.00,weatherlink.com 1.10,2013-10-16 19:05:00,
2013-10-16 15:21:00,58.2,52.0,29.90,WSW,244,0.0,7.0,81,0.00,,,0.00,weatherlink.com 1.10,2013-10-16 19:21:00,
2013-10-16 15:36:00,58.2,52.0,29.91,ESE,122,0.0,4.0,81,0.00,,,0.00,weatherlink.com 1.10,2013-10-16 19:36:00,
2013-10-16 15:51:00,58.1,53.0,29.90,ESE,107,1.0,7.0,83,0.00,,,0.00,weatherlink.com 1.10,2013-10-16 19:51:00,
2013-10-16 16:06:00,58.3,53.0,29.89,WSW,248,0.0,5.0,83,0.00,,,0.00,weatherlink.com 1.10,2013-10-16 20:06:00,
2013-10-16 16:21:00,58.1,53.0,29.90,North,360,0.0,6.0,82,0.00,,,0.00,weatherlink.com 1.10,2013-10-16 20:21:00,
2013-10-16 16:36:00,58.2,53.0,29.89,ESE,111,1.0,9.0,84,0.00,,,0.00,weatherlink.com 1.10,2013-10-16 20:36:00,
2013-10-16 16:51:00,58.5,53.0,29.89,SE,129,1.0,4.0,82,0.00,,,0.00,weatherlink.com 1.10,2013-10-16 20:51:00,
2013-10-16 17:07:00,58.3,54.0,29.89,East,99,0.0,2.0,84,0.00,,,0.00,weatherlink.com 1.10,2013-10-16 21:07:00,
2013-10-16 17:21:00,58.1,53.0,29.89,SE,138,0.0,2.0,84,0.00,,,0.00,weatherlink.com 1.10,2013-10-16 21:21:00,
2013-10-16 17:38:00,57.6,53.0,29.88,SSE,148,1.0,3.0,84,0.00,,,0.00,weatherlink.com 1.10,2013-10-16 21:38:00,
2013-10-16 17:52:00,57.0,53.0,29.88,SE,138,0.0,4.0,85,0.00,,,0.00,weatherlink.com 1.10,2013-10-16 21:52:00,
2013-10-16 18:07:00,56.7,53.0,29.88,WSW,247,0.0,2.0,86,0.00,,,0.00,weatherlink.com 1.10,2013-10-16 22:07:00,
2013-10-16 18:22:00,56.4,52.0,29.87,East,101,0.0,5.0,86,0.00,,,0.00,weatherlink.com 1.10,2013-10-16 22:22:00,
2013-10-16 18:37:00,56.2,52.0,29.88,SE,127,0.0,3.0,87,0.00,,,0.00,weatherlink.com 1.10,2013-10-16 22:37:00,
2013-10-16 18:52:00,56.0,52.0,29.87,SE,136,1.0,3.0,87,0.00,,,0.00,weatherlink.com 1.10,2013-10-16 22:52:00,
2013-10-16 19:07:00,55.7,52.0,29.88,ESE,123,3.0,5.0,88,0.00,,,0.00,weatherlink.com 1.10,2013-10-16 23:07:00,
2013-10-16 19:22:00,55.7,52.0,29.88,ENE,59,0.0,5.0,88,0.00,,,0.00,weatherlink.com 1.10,2013-10-16 23:22:00,
2013-10-16 19:37:00,55.6,52.0,29.87,SE,143,4.0,9.0,88,0.00,,,0.00,weatherlink.com 1.10,2013-10-16 23:37:00,
2013-10-16 19:52:00,55.5,52.0,29.87,SW,228,2.0,3.0,88,0.00,,,0.00,weatherlink.com 1.10,2013-10-16 23:52:00,
2013-10-16 20:07:00,55.5,52.0,29.87,SSE,147,0.0,5.0,88,0.00,,,0.00,weatherlink.com 1.10,2013-10-17 00:07:00,
2013-10-16 20:23:00,55.4,52.0,29.87,SE,136,2.0,4.0,88,0.00,,,0.00,weatherlink.com 1.10,2013-10-17 00:23:00,
2013-10-16 20:38:00,55.4,52.0,29.88,ESE,113,0.0,6.0,87,0.00,,,0.00,weatherlink.com 1.10,2013-10-17 00:38:00,
2013-10-16 20:53:00,55.2,52.0,29.87,WNW,284,0.0,2.0,88,0.00,,,0.00,weatherlink.com 1.10,2013-10-17 00:53:00,
2013-10-16 21:08:00,54.9,52.0,29.88,SW,217,1.0,9.0,89,0.00,,,0.00,weatherlink.com 1.10,2013-10-17 01:08:00,
2013-10-16 21:23:00,55.0,52.0,29.87,SE,126,0.0,7.0,89,0.00,,,0.00,weatherlink.com 1.10,2013-10-17 01:23:00,
2013-10-16 21:38:00,55.1,52.0,29.87,SSE,155,1.0,3.0,89,0.00,,,0.00,weatherlink.com 1.10,2013-10-17 01:38:00,
2013-10-16 21:53:00,55.2,52.0,29.87,SSE,152,0.0,5.0,89,0.00,,,0.00,weatherlink.com 1.10,2013-10-17 01:53:00,
2013-10-16 22:08:00,55.3,52.0,29.87,SW,217,1.0,8.0,89,0.00,,,0.00,weatherlink.com 1.10,2013-10-17 02:08:00,
2013-10-16 22:23:00,55.2,52.0,29.87,SE,134,4.0,5.0,89,0.00,,,0.00,weatherlink.com 1.10,2013-10-17 02:23:00,
2013-10-16 22:40:00,55.0,52.0,29.86,SE,139,2.0,9.0,89,0.00,,,0.00,weatherlink.com 1.10,2013-10-17 02:40:00,
2013-10-16 22:54:00,54.9,52.0,29.86,SSE,156,1.0,6.0,89,0.00,,,0.00,weatherlink.com 1.10,2013-10-17 02:54:00,
2013-10-16 23:09:00,55.0,52.0,29.86,ENE,74,1.0,6.0,90,0.00,,,0.00,weatherlink.com 1.10,2013-10-17 03:09:00,
2013-10-16 23:25:00,55.2,52.0,29.86,SSE,167,9.0,9.0,89,0.00,,,0.00,weatherlink.com 1.10,2013-10-17 03:25:00,
2013-10-16 23:39:00,55.5,52.0,29.85,ESE,112,1.0,6.0,89,0.00,,,0.00,weatherlink.com 1.10,2013-10-17 03:39:00,
2013-10-16 23:54:00,55.5,53.0,29.85,SSE,150,0.0,6.0,90,0.00,,,0.00,weatherlink.com 1.10,2013-10-17 03:54:00,